Valley, United Kingdom

10:09 AM BST on May 27, 2017 (GMT +0100)
Valley Air Base

Weather History for EGOV - February, 2014

Change the Weather History Date:

Thursday, February 20, 2014

  Actual Average Record
Temperature  
Mean Temperature 46 °F -  
Max Temperature 49 °F 47 °F 53 °F (1998)
Min Temperature 42 °F 38 °F 32 °F (2000)
Degree Days  
Heating Degree Days 18    
Moisture  
Dew Point 42 °F    
Average Humidity 81    
Maximum Humidity 100    
Minimum Humidity 54    
Precipitation  
Precipitation 0.01 in 0.08 in - ()
Sea Level Pressure  
Sea Level Pressure 29.36 in    
Wind  
Wind Speed 24 mph ()    
Max Wind Speed 38 mph    
Max Gust Speed 37 mph    
Visibility 7.1 miles    
Events Rain    
Averages and records for this station are not official NWS values.
T = Trace of Precipitation, MM = Missing Value Source: Averaged Metar Reports

Daily Weather History Graph

Daily Weather History Graph

Search for Another Location

Airport or City:

Trip Planner

Search our weather history database for the weather conditions in past years. The results will help you decide how hot, cold, wet, or windy it might be!

Date:

Astronomy

Feb. 20, 2014 Rise Set
Actual Time 7:25 AM GMT 5:38 PM GMT
Civil Twilight 6:50 AM GMT 6:14 PM GMT
Nautical Twilight 6:10 AM GMT 6:54 PM GMT
Astronomical Twilight 5:29 AM GMT 7:34 PM GMT
Moon No Moon Rise 9:11 AM GMT (2/20)
Length of Visible Light 11h 23m
Length of Day
10h 12m
Waning Gibbous, 73% of the Moon is Illuminated
Feb 20
Waning Gibbous
Feb 22
Last Quarter
Mar 1
New
Mar 8
First Quarter
Mar 16
Full

Hourly Weather History & Observations

Time (GMT) Temp. Windchill Dew Point Humidity Pressure Visibility Wind Dir Wind Speed Gust Speed Precip Events Conditions
12:00 AM 48 °F - 48 °F 100% 29.49 in 2 mi South 27.6 mph - - Rain Drizzle
12:50 AM 48.2 °F - 48.2 °F 100% 29.44 in - South 29.9 mph - N/A   Overcast
1:00 AM 48 °F - 48 °F 100% 29.46 in 2 mi South 29.9 mph - - Rain Rain
1:50 AM 48.2 °F - 48.2 °F 100% 29.39 in 3.7 mi South 31.1 mph - N/A Rain Light Rain
2:00 AM 48 °F - 48 °F 100% 29.41 in 4 mi South 31.1 mph - - Rain Light Rain
2:50 AM 48.2 °F - 48.2 °F 100% 29.36 in 1.9 mi South 31.1 mph - N/A   Drizzle
3:00 AM 49 °F - 49 °F 99% 29.37 in 2 mi South 31.1 mph - - Rain Drizzle
3:50 AM 48.2 °F - 48.2 °F 100% 29.30 in 3.1 mi South 34.5 mph - N/A   Light Drizzle
4:00 AM 49 °F - 49 °F 98% 29.31 in 3 mi South 34.5 mph - - Rain Light Drizzle
4:50 AM 50.0 °F - 48.2 °F 94% 29.27 in 2.5 mi South 34.5 mph - N/A   Light Drizzle
5:00 AM 49 °F - 49 °F 98% 29.27 in 2 mi South 34.5 mph - - Rain Light Drizzle
5:50 AM 50.0 °F - 48.2 °F 94% 29.21 in 4.3 mi South 38.0 mph - N/A   Light Drizzle
6:00 AM 49 °F - 49 °F 100% 29.23 in 4 mi South 38.0 mph - - Rain Light Drizzle
6:50 AM 48.2 °F - 46.4 °F 93% 29.24 in 4.3 mi SW 32.2 mph - N/A   Haze
7:00 AM 48 °F - 46 °F 89% 29.26 in 4 mi SW 32.2 mph - - Rain Light Drizzle
7:50 AM 46.4 °F 38.1 °F 41.0 °F 81% 29.30 in 6.2 mi WSW 24.2 mph - N/A   Scattered Clouds
8:00 AM 46 °F - 41 °F 78% 29.32 in 19 mi WSW 24.2 mph - -   Partly Cloudy
8:50 AM 46.4 °F 37.9 °F 41.0 °F 81% 29.33 in 6.2 mi SW 25.3 mph - N/A   Scattered Clouds
9:00 AM 46 °F - 42 °F 80% 29.34 in 19 mi SW 25.3 mph - -   Partly Cloudy
9:50 AM 46.4 °F 38.3 °F 41.0 °F 81% 29.33 in 6.2 mi SW 23.0 mph - N/A   Partly Cloudy
10:00 AM 47 °F - 41 °F 74% 29.34 in 19 mi SW 23.0 mph - -   Scattered Clouds
10:50 AM 46.4 °F 38.7 °F 42.8 °F 87% 29.33 in 6.2 mi SW 20.7 mph - N/A Rain Light Rain Showers
11:00 AM 47 °F - 43 °F 79% 29.34 in 12 mi SW 20.7 mph - - Rain Light Rain Showers
11:21 AM 46.4 °F 38.1 °F 44.6 °F 93% 29.33 in 6.2 mi SSW 24.2 mph - N/A Rain Rain Showers
11:24 AM 46.4 °F 38.5 °F 44.6 °F 93% 29.33 in 6.2 mi SSW 21.9 mph - N/A Rain Light Rain Showers
11:50 AM 48.2 °F - 44.6 °F 87% 29.33 in 6.2 mi SW 21.9 mph - N/A   Scattered Clouds
12:00 PM 47 °F - 44 °F 84% 29.33 in 16 mi SW 21.9 mph - - Rain Light Rain Showers
12:10 PM 46.4 °F 37.9 °F 42.8 °F 87% 29.33 in 6.2 mi SW 25.3 mph - N/A Rain Light Rain Showers
12:24 PM 46.4 °F 37.9 °F 41.0 °F 81% 29.33 in 6.2 mi SW 25.3 mph - N/A   Mostly Cloudy
12:50 PM 46.4 °F 37.9 °F 41.0 °F 81% 29.33 in 6.2 mi SW 25.3 mph 36.8 mph N/A Rain Light Rain Showers
1:00 PM 47 °F - 41 °F 74% 29.33 in 19 mi SW 25.3 mph - - Rain Light Rain Showers
1:50 PM 46.4 °F 38.3 °F 39.2 °F 76% 29.33 in 6.2 mi West 23.0 mph - N/A   Scattered Clouds
2:00 PM 47 °F - 38 °F 63% 29.35 in 19 mi West 23.0 mph - - Rain Light Rain Showers
2:50 PM 48.2 °F - 37.4 °F 66% 29.36 in 6.2 mi WSW 18.4 mph - N/A   Scattered Clouds
3:00 PM 47 °F - 38 °F 61% 29.37 in 25 mi WSW 18.4 mph - -   Partly Cloudy
3:50 PM 48.2 °F - 39.2 °F 71% 29.36 in 6.2 mi WSW 17.3 mph - N/A   Partly Cloudy
4:00 PM 47 °F - 39 °F 64% 29.38 in 31 mi WSW 17.3 mph - -   Scattered Clouds
4:50 PM 46.4 °F 39.8 °F 37.4 °F 71% 29.39 in 6.2 mi SW 16.1 mph - N/A   Mostly Cloudy
5:00 PM 46 °F - 38 °F 65% 29.39 in 25 mi SW 16.1 mph - -   Scattered Clouds
5:50 PM 44.6 °F 36.6 °F 35.6 °F 71% 29.39 in 6.2 mi WSW 19.6 mph - N/A   Partly Cloudy
6:00 PM 45 °F - 36 °F 61% 29.41 in 22 mi WSW 19.6 mph - -   Partly Cloudy
6:50 PM 44.6 °F 37.4 °F 37.4 °F 76% 29.42 in 6.2 mi SW 16.1 mph - N/A   Partly Cloudy
7:00 PM 45 °F - 37 °F 64% 29.42 in 22 mi SW 16.1 mph - -   Scattered Clouds
7:50 PM 44.6 °F 37.8 °F 37.4 °F 76% 29.42 in 6.2 mi WSW 15.0 mph - N/A   Scattered Clouds
8:00 PM 45 °F - 37 °F 66% 29.43 in 22 mi WSW 15.0 mph - -   Scattered Clouds
8:50 PM 44.6 °F 36.9 °F 35.6 °F 71% 29.42 in 6.2 mi WSW 18.4 mph - N/A   Scattered Clouds
9:00 PM 45 °F - 36 °F 60% 29.44 in 25 mi WSW 18.4 mph - -   Scattered Clouds
9:50 PM 44.6 °F 36.6 °F 33.8 °F 66% 29.44 in 6.2 mi WSW 19.6 mph - N/A   Scattered Clouds
10:00 PM 44 °F - 33 °F 54% 29.46 in 25 mi WSW 19.6 mph - -   Partly Cloudy
10:50 PM 44.6 °F 36.9 °F 35.6 °F 71% 29.44 in - SW 18.4 mph - N/A   Clear
11:00 PM 44 °F - 36 °F 64% 29.45 in 25 mi SW 18.4 mph - -   Partly Cloudy
11:50 PM 42.8 °F 33.3 °F 33.8 °F 70% 29.44 in 6.2 mi WSW 24.2 mph - N/A   Scattered Clouds